Regional Weather Roundup
Issued by NWS Little Rock, AR

Home | Current Version | Previous Version | Text Only | Print | Product List | Glossary On
Versions: 1 2 3 4 5 6 7 8 9 10 11 12 13 14 15 16 17 18 19 20 21 22 23 24 25 26 27 28 29 30 31 32 33 34 35 36 37 38 39 40 41 42 43 44 45 46 47 48 49 50
551
ASUS44 KLZK 240505
RWRLZK

WEATHER ROUNDUP FOR ARKANSAS
NATIONAL WEATHER SERVICE LITTLE ROCK AR
1200 AM CDT TUE APR 24 2018

NOTE: "FAIR" INDICATES FEW OR NO CLOUDS BELOW 12,000 FEET WITH NO
SIGNIFICANT WEATHER AND/OR OBSTRUCTIONS TO VISIBILITY.

ARZ001-003-010-029-240600-
NORTHWEST ARKANSAS

CITY           SKY/WX    TMP DP  RH WIND       PRES   REMARKS
FAYETTEVILLE   CLEAR     51  47  86 CALM      30.02R
FORT SMITH     CLEAR     59  48  67 CALM      30.00R
HARRISON       CLOUDY    55  50  83 NW3       30.00F
BENTONVILLE    PTCLDY    57  45  64 CALM      30.04S
ROGERS         CLEAR     56  44  64 CALM      30.03S
SILOAM SPGS    CLEAR     53  45  74 CALM      30.02F
HIGHFILL       PTCLDY    56  44  64 N5        30.02S
$$

ARZ004-005-016-240600-
NORTH CENTRAL ARKANSAS

CITY           SKY/WX    TMP DP  RH WIND       PRES   REMARKS
BATESVILLE     PTCLDY    54  53  97 CALM      29.96F
FLIPPIN        CLEAR     56  52  86 NW3       29.99S
MTN HOME       CLEAR     53  51  93 CALM      29.97F
$$

ARZ040-041-240600-
WEST CENTRAL ARKANSAS

CITY           SKY/WX    TMP DP  RH WIND       PRES   REMARKS
MENA           CLEAR     52  52 100 CALM      30.00S
MOUNT IDA      CLEAR     55  54  96 CALM      29.97R
$$

ARZ009-017-025-026-028-240600-
NORTHEAST ARKANSAS

CITY           SKY/WX    TMP DP  RH WIND       PRES   REMARKS
CORNING        CLOUDY    59  59 100 NW10      29.95R
JONESBORO      CLOUDY    55  55 100 NW6       29.93F
NEWPORT        CLOUDY    56  54  93 N8        29.95S
WALNUT RIDGE   CLOUDY    57  55  93 N9        29.95S
BLYTHEVILLE    FAIR      54  52  93 W3        29.93S
$$

ARZ022-023-033-042-044-240600-
CENTRAL ARKANSAS

CITY           SKY/WX    TMP DP  RH WIND       PRES   REMARKS
N LITTLE ROCK    N/A     55  54  94 N5        29.94S
JACKSONVILLE   CLEAR     57  56  98 CALM      29.95F
CONWAY         CLEAR     55  54  94 N5        29.97R
SEARCY         CLOUDY    58  57  97 N6        29.96S
HOT SPRINGS    CLEAR     58  56  93 N3        29.98R
RUSSELLVILLE   CLEAR     52  51  97 CALM      29.97S
CLINTON        FAIR      54  52  94 CALM      29.97F
$$

ARZ036-240600-
EAST ARKANSAS

CITY           SKY/WX    TMP DP  RH WIND       PRES   REMARKS
WEST MEMPHIS   CLOUDY    56  55  97 N3        29.92F
$$

ARZ050-053-066-070-073-240600-
SOUTHWEST ARKANSAS

CITY           SKY/WX    TMP DP  RH WIND       PRES   REMARKS
ARKADELPHIA    FAIR      61  57  87 CALM      29.98R
CAMDEN         MOCLDY    59  54  82 N5        29.97R
TEXARKANA      CLEAR     57  54  89 SW7       29.99R
EL DORADO      CLOUDY    60  59  96 SW5       29.97R
DE QUEEN       CLEAR     54  54 100 CALM      29.97S
$$

ARZ056-057-069-240600-
SOUTHEAST ARKANSAS

CITY           SKY/WX    TMP DP  RH WIND       PRES   REMARKS
PINE BLUFF     FAIR      56  53  90 W5        29.96F
MONTICELLO     MOCLDY    59  56  89 CALM      29.96R

$$






USA.gov is the U.S. government's official web portal to all federal, state and local government web resources and services.